TimeCDT,TemperatureF,Dew PointF,Humidity,Sea Level PressureIn,VisibilityMPH,Wind Direction,Wind SpeedMPH,Gust SpeedMPH,PrecipitationIn,Events,Conditions,WindDirDegrees,DateUTC
12:55 AM,73.4,71.6,94,30.23,9.0,Calm,Calm,-,N/A,,Clear,0,2013-08-26 05:55:00
1:55 AM,73.4,71.6,94,30.22,10.0,Calm,Calm,-,N/A,,Clear,0,2013-08-26 06:55:00
2:55 AM,71.6,71.6,100,30.22,8.0,Calm,Calm,-,N/A,,Clear,0,2013-08-26 07:55:00
3:15 AM,71.6,69.8,94,30.23,7.0,Calm,Calm,-,N/A,,Clear,0,2013-08-26 08:15:00
3:35 AM,71.6,69.8,94,30.23,7.0,Calm,Calm,-,N/A,,Clear,0,2013-08-26 08:35:00
3:55 AM,71.6,69.8,94,30.23,7.0,Calm,Calm,-,N/A,,Clear,0,2013-08-26 08:55:00
4:15 AM,71.6,69.8,94,30.23,7.0,Calm,Calm,-,N/A,,Clear,0,2013-08-26 09:15:00
4:35 AM,71.6,69.8,94,30.23,7.0,Calm,Calm,-,N/A,,Clear,0,2013-08-26 09:35:00
4:55 AM,71.6,69.8,94,30.23,6.0,Calm,Calm,-,N/A,,Clear,0,2013-08-26 09:55:00
5:15 AM,69.8,69.8,100,30.23,5.0,Calm,Calm,-,N/A,,Clear,0,2013-08-26 10:15:00
5:35 AM,69.8,69.8,100,30.23,6.0,Calm,Calm,-,N/A,,Clear,0,2013-08-26 10:35:00
5:55 AM,69.8,69.8,100,30.24,7.0,Calm,Calm,-,N/A,,Clear,0,2013-08-26 10:55:00
6:55 AM,69.8,69.8,100,30.25,4.0,Calm,Calm,-,N/A,,Clear,0,2013-08-26 11:55:00
7:55 AM,73.4,71.6,94,30.26,9.0,Calm,Calm,-,N/A,,Clear,0,2013-08-26 12:55:00
8:55 AM,78.8,71.6,78,30.26,10.0,SSE,5.8,-,N/A,,Clear,160,2013-08-26 13:55:00
9:55 AM,82.4,71.6,70,30.26,10.0,Variable,4.6,-,N/A,,Clear,0,2013-08-26 14:55:00
10:55 AM,87.8,71.6,58,30.26,10.0,SSE,4.6,-,N/A,,Partly Cloudy,160,2013-08-26 15:55:00
11:55 AM,87.8,71.6,58,30.25,10.0,Variable,4.6,-,N/A,,Scattered Clouds,0,2013-08-26 16:55:00
12:55 PM,89.6,71.6,55,30.24,10.0,Calm,Calm,-,N/A,,Scattered Clouds,0,2013-08-26 17:55:00
1:55 PM,89.6,71.6,55,30.21,10.0,ESE,4.6,-,N/A,,Scattered Clouds,120,2013-08-26 18:55:00
2:55 PM,91.4,69.8,49,30.19,10.0,Variable,3.5,-,N/A,,Scattered Clouds,0,2013-08-26 19:55:00
3:55 PM,89.6,71.6,55,30.17,10.0,Calm,Calm,-,N/A,,Scattered Clouds,0,2013-08-26 20:55:00
4:55 PM,87.8,69.8,55,30.16,10.0,Calm,Calm,-,N/A,,Scattered Clouds,0,2013-08-26 21:55:00
5:55 PM,89.6,69.8,52,30.14,10.0,Calm,Calm,-,N/A,,Scattered Clouds,0,2013-08-26 22:55:00
6:55 PM,84.2,71.6,66,30.14,10.0,Calm,Calm,-,N/A,,Partly Cloudy,0,2013-08-26 23:55:00
7:55 PM,78.8,71.6,78,30.14,10.0,Calm,Calm,-,N/A,,Partly Cloudy,0,2013-08-27 00:55:00
8:55 PM,77.0,71.6,83,30.15,10.0,Calm,Calm,-,N/A,,Scattered Clouds,0,2013-08-27 01:55:00
9:55 PM,75.2,71.6,89,30.15,10.0,East,3.5,-,N/A,,Partly Cloudy,100,2013-08-27 02:55:00
10:55 PM,75.2,69.8,83,30.15,10.0,Calm,Calm,-,N/A,,Scattered Clouds,0,2013-08-27 03:55:00
11:55 PM,73.4,69.8,88,30.15,10.0,Calm,Calm,-,N/A,,Scattered Clouds,0,2013-08-27 04:55:00